Aérodrome :
LOGIN :

S'inscrire | Disclaimer

   EN    FR    IT 

 










Légende :    VFR   VFR Marginal   IFR   IFR Intensif   IFR Très Intensif
Visi : 
Plafond : 
>= 8 km
>= 3000ft
5 à 8 km
1000 à 3000 ft
1500m à 5 km
500 à 1000 ft
800 à 1500m
200 à 500 ft
< 800m
< 200 ft
Symboles :   Orages  Brouillard  Fortes neiges  Fortes précipitations  Vent > 20 kt
SIGMETs :   Divers  Orages  Givrage  Turbulence  Onde Orograph.  Cendres Volcan.







- Altitude de l'aérodrome : 86 ft


LERT - Rota Navy

DERNIER METAR :
  • 190100Z 03006KT 9999 FEW040 13/12 Q1009 NOSIG

METARs EXPIRÉS :
  • 190000Z 05005KT 9999 FEW040 13/12 Q1010 NOSIG
  • 182300Z 07005KT 9999 FEW030 14/12 Q1010 NOSIG

TAF TAF LERT
Valide du 19 à 00h jusqu'au 19 à 09h UTC


182300Z 1900/1909 06006KT 9999 FEW040
Pas de NOTAMs connus pour ce terrain.
1 SIGMET publié pour la FIR Madrid (LECM) :
 
Annulation du SIGMET 18
LECM SIGMET 1 VALID 190150/192200 LEVA
LECM MADRID UIR CNL SIGMET 18 VALID 182039/192200=



MET'MAP, la Météo Aéronautique d'un coup d'oeil ! - Copyright ORBIFLY Décembre 2007 - Disclaimer

ORBIFLY MET'MAP TEAM :

Programmation & Développement : Alexandra Zaïnal
Conception & Développement : Baudouin d'Aumeries
Co-Programmation & Développement : Marc-Olivier Méhu
Soutien technique & logistique : Manuel Goepfert

Contact : metmap@orbifly.com




SOURCES & CREDITS :

   NOAA